| time (UTC) | temp F | wind direction | speed MPH | gust MPH | rain 1hr in | rain 24hr in | rain mn in | humidity % | barometer mb |
| 20260902133931 | 82 | 131 | 3.0 | 6.0 | 0.00 | 0.00 | 0.00 | 66 | 1015.8 |
| 20260902133440 | 82 | 127 | 3.0 | 6.0 | 0.00 | 0.00 | 0.00 | 67 | 1015.7 |
| 20260902132929 | 82 | 118 | 2.0 | 6.0 | 0.00 | 0.00 | 0.00 | 67 | 1015.8 |
| 20260902132435 | 82 | 118 | 2.0 | 6.0 | 0.00 | 0.00 | 0.00 | 67 | 1015.8 |
| 20260902131938 | 82 | 116 | 4.0 | 6.0 | 0.00 | 0.00 | 0.00 | 67 | 1015.7 |
| 20260902131424 | 81 | 116 | 3.0 | 6.0 | 0.00 | 0.00 | 0.00 | 68 | 1015.7 |
| 20260902130929 | 81 | 122 | 2.0 | 5.0 | 0.00 | 0.00 | 0.00 | 69 | 1015.7 |
| 20260902130434 | 81 | 124 | 3.0 | 5.0 | 0.00 | 0.00 | 0.00 | 69 | 1015.7 |
| 20260902125942 | 81 | 126 | 2.0 | 5.0 | 0.00 | 0.00 | 0.00 | 69 | 1015.5 |
| 20260902125431 | 81 | 126 | 3.0 | 5.0 | 0.00 | 0.00 | 0.00 | 69 | 1015.6 |
| 20260902125005 | 81 | 122 | 2.0 | 4.0 | 0.00 | 0.00 | 0.00 | 69 | 1015.6 |
| 20260902124431 | 80 | 122 | 2.0 | 4.0 | 0.00 | 0.00 | 0.00 | 70 | 1015.5 |
| 20260902123937 | 80 | 122 | 2.0 | 5.0 | 0.00 | 0.00 | 0.00 | 70 | 1015.5 |
| 20260902123430 | 80 | 122 | 1.0 | 5.0 | 0.00 | 0.00 | 0.00 | 69 | 1015.3 |
| 20260902122930 | 80 | 120 | 2.0 | 6.0 | 0.00 | 0.00 | 0.00 | 69 | 1015.2 |
| 20260902122438 | 80 | 121 | 3.0 | 6.0 | 0.00 | 0.00 | 0.00 | 69 | 1015.1 |
| 20260902121946 | 80 | 122 | 2.0 | 4.0 | 0.00 | 0.00 | 0.00 | 69 | 1015.0 |
| 20260902121428 | 80 | 122 | 2.0 | 6.0 | 0.00 | 0.00 | 0.00 | 69 | 1014.9 |
| 20260902121006 | 80 | 122 | 3.0 | 6.0 | 0.00 | 0.00 | 0.00 | 69 | 1014.9 |
| 20260902120429 | 80 | 121 | 3.0 | 4.0 | 0.00 | 0.00 | 0.00 | 69 | 1015.0 |
| 20260902115940 | 80 | 122 | 2.0 | 4.0 | 0.00 | 0.00 | 0.00 | 69 | 1014.9 |
| 20260902115444 | 80 | 121 | 2.0 | 5.0 | 0.00 | 0.00 | 0.00 | 68 | 1015.0 |
| 20260902114932 | 80 | 122 | 2.0 | 5.0 | 0.00 | 0.00 | 0.00 | 68 | 1015.0 |
| 20260902114508 | 80 | 120 | 3.0 | 6.0 | 0.00 | 0.00 | 0.00 | 68 | 1014.9 |
| 20260902113946 | 80 | 121 | 4.0 | 7.0 | 0.00 | 0.00 | 0.00 | 68 | 1015.0 |
| 20260902113432 | 80 | 118 | 3.0 | 7.0 | 0.00 | 0.00 | 0.00 | 68 | 1015.0 |
| 20260902112940 | 80 | 118 | 2.0 | 7.0 | 0.00 | 0.00 | 0.00 | 68 | 1015.0 |
| 20260902112429 | 81 | 118 | 3.0 | 7.0 | 0.00 | 0.00 | 0.00 | 68 | 1015.0 |
| 20260902111951 | 81 | 117 | 4.0 | 7.0 | 0.00 | 0.00 | 0.00 | 68 | 1015.1 |
| 20260902111433 | 81 | 121 | 3.0 | 9.0 | 0.00 | 0.00 | 0.00 | 68 | 1015.1 |
| 20260902110940 | 81 | 117 | 5.0 | 9.0 | 0.00 | 0.00 | 0.00 | 68 | 1015.0 |
| 20260902110451 | 81 | 126 | 3.0 | 5.0 | 0.00 | 0.00 | 0.00 | 68 | 1015.0 |
| 20260902110000 | 81 | 129 | 3.0 | 5.0 | 0.00 | 0.00 | 0.00 | 68 | 1015.0 |
| 20260902105427 | 81 | 131 | 2.0 | 5.0 | 0.00 | 0.00 | 0.00 | 67 | 1015.0 |
| 20260902104935 | 81 | 130 | 3.0 | 5.0 | 0.00 | 0.00 | 0.00 | 67 | 1015.0 |
| 20260902104442 | 81 | 133 | 3.0 | 5.0 | 0.00 | 0.00 | 0.00 | 67 | 1015.0 |
| 20260902103929 | 81 | 162 | 2.0 | 5.0 | 0.00 | 0.00 | 0.00 | 67 | 1014.9 |
| 20260902103435 | 81 | 181 | 3.0 | 4.0 | 0.00 | 0.00 | 0.00 | 67 | 1014.9 |
| 20260902102942 | 81 | 153 | 2.0 | 4.0 | 0.00 | 0.00 | 0.00 | 67 | 1014.9 |
| 20260902102454 | 81 | 186 | 2.0 | 4.0 | 0.00 | 0.00 | 0.00 | 67 | 1014.9 |
| 20260902101944 | 81 | 191 | 2.0 | 3.0 | 0.00 | 0.00 | 0.00 | 67 | 1014.9 |
| 20260902101432 | 81 | 191 | 1.0 | 2.0 | 0.00 | 0.00 | 0.00 | 67 | 1014.9 |
| 20260902100932 | 81 | 191 | 1.0 | 2.0 | 0.00 | 0.00 | 0.00 | 67 | 1014.9 |
| 20260902100444 | 81 | 191 | 0.0 | 1.0 | 0.00 | 0.00 | 0.00 | 66 | 1014.9 |
| 20260902095930 | 82 | 191 | 0.0 | 1.0 | 0.00 | 0.00 | 0.00 | 66 | 1014.8 |
| 20260902095435 | 82 | 191 | 0.0 | 0.0 | 0.00 | 0.00 | 0.00 | 67 | 1014.8 |
| 20260902094940 | 82 | 191 | 0.0 | 2.0 | 0.00 | 0.00 | 0.00 | 66 | 1014.7 |
| 20260902094427 | 82 | 191 | 0.0 | 3.0 | 0.00 | 0.00 | 0.00 | 65 | 1014.9 |
| 20260902093940 | 82 | 191 | 1.0 | 4.0 | 0.00 | 0.00 | 0.00 | 65 | 1014.9 |
| 20260902093440 | 82 | 191 | 1.0 | 5.0 | 0.00 | 0.00 | 0.00 | 64 | 1014.8 |
| 20260902092942 | 82 | 191 | 2.0 | 5.0 | 0.00 | 0.00 | 0.00 | 65 | 1014.9 |
| 20260902092427 | 82 | 195 | 1.0 | 4.0 | 0.00 | 0.00 | 0.00 | 65 | 1014.9 |
| 20260902091935 | 83 | 196 | 1.0 | 4.0 | 0.00 | 0.00 | 0.00 | 64 | 1015.0 |
| 20260902091440 | 83 | 196 | 2.0 | 6.0 | 0.00 | 0.00 | 0.00 | 64 | 1014.9 |
| 20260902090926 | 83 | 201 | 3.0 | 7.0 | 0.00 | 0.00 | 0.00 | 64 | 1015.0 |
| 20260902090456 | 83 | 201 | 2.0 | 7.0 | 0.00 | 0.00 | 0.00 | 64 | 1014.9 |
| 20260902085957 | 83 | 190 | 4.0 | 6.0 | 0.00 | 0.00 | 0.00 | 64 | 1015.0 |
| 20260902085438 | 83 | 185 | 3.0 | 8.0 | 0.00 | 0.00 | 0.00 | 65 | 1014.9 |
| 20260902084945 | 83 | 194 | 3.0 | 8.0 | 0.00 | 0.00 | 0.00 | 64 | 1015.0 |
| 20260902084452 | 83 | 153 | 2.0 | 6.0 | 0.00 | 0.00 | 0.00 | 65 | 1015.0 |
| 20260902084000 | 83 | 148 | 2.0 | 6.0 | 0.00 | 0.00 | 0.00 | 64 | 1015.0 |
| 20260902083440 | 83 | 141 | 4.0 | 8.0 | 0.00 | 0.00 | 0.00 | 65 | 1014.9 |
| 20260902082949 | 83 | 167 | 4.0 | 8.0 | 0.00 | 0.00 | 0.00 | 65 | 1014.9 |
| 20260902082438 | 83 | 169 | 2.0 | 7.0 | 0.00 | 0.00 | 0.00 | 64 | 1014.9 |
| 20260902081943 | 83 | 171 | 4.0 | 7.0 | 0.00 | 0.00 | 0.00 | 64 | 1014.9 |
| 20260902081429 | 83 | 172 | 4.0 | 9.0 | 0.00 | 0.00 | 0.00 | 63 | 1014.9 |
| 20260902080957 | 84 | 204 | 3.0 | 9.0 | 0.00 | 0.00 | 0.00 | 63 | 1014.9 |
| 20260902080437 | 84 | 179 | 5.0 | 13.0 | 0.00 | 0.00 | 0.00 | 62 | 1014.9 |
| 20260902075945 | 85 | 158 | 3.0 | 13.0 | 0.00 | 0.00 | 0.00 | 61 | 1014.9 |
| 20260902075449 | 85 | 191 | 5.0 | 10.0 | 0.00 | 0.00 | 0.00 | 60 | 1015.0 |
| 20260902074955 | 85 | 175 | 4.0 | 10.0 | 0.00 | 0.00 | 0.00 | 59 | 1015.0 |
| 20260902074442 | 85 | 193 | 3.0 | 7.0 | 0.00 | 0.00 | 0.00 | 59 | 1015.0 |
| 20260902073928 | 85 | 148 | 3.0 | 7.0 | 0.00 | 0.00 | 0.00 | 60 | 1015.0 |
| 20260902073431 | 85 | 177 | 4.0 | 6.0 | 0.00 | 0.00 | 0.00 | 59 | 1015.0 |
| 20260902072935 | 86 | 158 | 2.0 | 6.0 | 0.00 | 0.00 | 0.00 | 59 | 1015.0 |
| 20260902072427 | 86 | 148 | 4.0 | 8.0 | 0.00 | 0.00 | 0.00 | 59 | 1015.2 |
| 20260902071935 | 86 | 148 | 3.0 | 8.0 | 0.00 | 0.00 | 0.00 | 59 | 1015.2 |
| 20260902071439 | 86 | 166 | 4.0 | 7.0 | 0.00 | 0.00 | 0.00 | 59 | 1015.1 |
| 20260902070947 | 86 | 165 | 4.0 | 10.0 | 0.00 | 0.00 | 0.00 | 59 | 1015.1 |
| 20260902070438 | 86 | 177 | 4.0 | 10.0 | 0.00 | 0.00 | 0.00 | 59 | 1015.2 |
| 20260902065925 | 86 | 153 | 8.0 | 10.0 | 0.00 | 0.00 | 0.00 | 59 | 1015.1 |
| 20260902065449 | 86 | 191 | 3.0 | 9.0 | 0.00 | 0.00 | 0.00 | 59 | 1015.1 |
| 20260902064935 | 86 | 207 | 3.0 | 9.0 | 0.00 | 0.00 | 0.00 | 59 | 1015.0 |
| 20260902064440 | 86 | 153 | 2.0 | 7.0 | 0.00 | 0.00 | 0.00 | 59 | 1015.1 |
| 20260902063930 | 86 | 153 | 4.0 | 8.0 | 0.00 | 0.00 | 0.00 | 58 | 1015.0 |
| 20260902063502 | 86 | 135 | 6.0 | 8.0 | 0.00 | 0.00 | 0.00 | 58 | 1015.0 |
| 20260902062933 | 87 | 134 | 3.0 | 12.0 | 0.00 | 0.00 | 0.00 | 58 | 1014.9 |
| 20260902062436 | 87 | 173 | 4.0 | 11.0 | 0.00 | 0.00 | 0.00 | 57 | 1014.9 |
| 20260902062008 | 87 | 142 | 4.0 | 11.0 | 0.00 | 0.00 | 0.00 | 57 | 1014.8 |
| 20260902061456 | 87 | 134 | 7.0 | 12.0 | 0.00 | 0.00 | 0.00 | 57 | 1014.8 |
| 20260902061007 | 87 | 175 | 7.0 | 12.0 | 0.00 | 0.00 | 0.00 | 56 | 1014.8 |
| 20260902060434 | 87 | 148 | 7.0 | 12.0 | 0.00 | 0.00 | 0.00 | 56 | 1014.7 |
| 20260902055940 | 87 | 118 | 7.0 | 12.0 | 0.00 | 0.00 | 0.00 | 55 | 1014.6 |
| 20260902055504 | 88 | 162 | 5.0 | 9.0 | 0.00 | 0.00 | 0.00 | 55 | 1014.6 |
| 20260902054953 | 88 | 133 | 5.0 | 9.0 | 0.00 | 0.00 | 0.00 | 55 | 1014.5 |
| 20260902054440 | 88 | 125 | 6.0 | 10.0 | 0.00 | 0.00 | 0.00 | 54 | 1014.5 |
| 20260902053930 | 88 | 179 | 5.0 | 13.0 | 0.00 | 0.00 | 0.00 | 54 | 1014.4 |
| 20260902053436 | 88 | 126 | 7.0 | 13.0 | 0.00 | 0.00 | 0.00 | 53 | 1014.4 |
| 20260902052946 | 89 | 118 | 7.0 | 11.0 | 0.00 | 0.00 | 0.00 | 53 | 1014.4 |
| 20260902052429 | 89 | 166 | 7.0 | 10.0 | 0.00 | 0.00 | 0.00 | 52 | 1014.4 |
| 20260902051936 | 89 | 158 | 5.0 | 9.0 | 0.00 | 0.00 | 0.00 | 52 | 1014.2 |
| 20260902051436 | 89 | 124 | 4.0 | 10.0 | 0.00 | 0.00 | 0.00 | 52 | 1014.3 |
| 20260902050944 | 89 | 136 | 7.0 | 14.0 | 0.00 | 0.00 | 0.00 | 52 | 1014.3 |
| 20260902050432 | 89 | 122 | 8.0 | 14.0 | 0.00 | 0.00 | 0.00 | 51 | 1014.3 |
| 20260902045936 | 89 | 117 | 4.0 | 12.0 | 0.00 | 0.00 | 0.00 | 51 | 1014.3 |
| 20260902045426 | 90 | 129 | 4.0 | 13.0 | 0.00 | 0.00 | 0.00 | 51 | 1014.3 |
| 20260902044937 | 89 | 122 | 6.0 | 13.0 | 0.00 | 0.00 | 0.00 | 51 | 1014.3 |
| 20260902044448 | 90 | 117 | 0.0 | 6.0 | 0.00 | 0.00 | 0.00 | 51 | 1014.2 |
| 20260902043932 | 90 | 115 | 2.0 | 5.0 | 0.00 | 0.00 | 0.00 | 50 | 1014.2 |
| 20260902043443 | 90 | 116 | 1.0 | 4.0 | 0.00 | 0.00 | 0.00 | 50 | 1014.2 |
| 20260902042953 | 90 | 115 | 2.0 | 5.0 | 0.00 | 0.00 | 0.00 | 50 | 1014.1 |
| 20260902042435 | 90 | 116 | 3.0 | 6.0 | 0.00 | 0.00 | 0.00 | 50 | 1014.1 |
| 20260902041938 | 90 | 115 | 4.0 | 7.0 | 0.00 | 0.00 | 0.00 | 49 | 1014.0 |
| 20260902041429 | 90 | 120 | 6.0 | 7.0 | 0.00 | 0.00 | 0.00 | 49 | 1014.0 |
| 20260902040933 | 90 | 121 | 4.0 | 6.0 | 0.00 | 0.00 | 0.00 | 49 | 1013.9 |
| 20260902040455 | 91 | 127 | 3.0 | 6.0 | 0.00 | 0.00 | 0.00 | 49 | 1014.0 |
| 20260902035945 | 91 | 127 | 3.0 | 6.0 | 0.00 | 0.00 | 0.00 | 49 | 1014.1 |
| 20260902035430 | 91 | 134 | 4.0 | 6.0 | 0.00 | 0.00 | 0.00 | 48 | 1014.0 |
| 20260902034937 | 91 | 128 | 4.0 | 7.0 | 0.00 | 0.00 | 0.00 | 48 | 1014.0 |
| 20260902034443 | 91 | 120 | 5.0 | 7.0 | 0.00 | 0.00 | 0.00 | 48 | 1014.0 |
| 20260902033932 | 91 | 129 | 4.0 | 7.0 | 0.00 | 0.00 | 0.00 | 48 | 1014.1 |
| 20260902033435 | 91 | 127 | 3.0 | 7.0 | 0.00 | 0.00 | 0.00 | 48 | 1014.0 |
| 20260902032941 | 91 | 132 | 3.0 | 6.0 | 0.00 | 0.00 | 0.00 | 48 | 1013.9 |
| 20260902032427 | 91 | 122 | 3.0 | 6.0 | 0.00 | 0.00 | 0.00 | 48 | 1013.9 |
| 20260902032003 | 91 | 128 | 3.0 | 5.0 | 0.00 | 0.00 | 0.00 | 48 | 1014.0 |
| 20260902031429 | 91 | 129 | 3.0 | 5.0 | 0.00 | 0.00 | 0.00 | 47 | 1013.9 |
| 20260902030933 | 92 | 124 | 2.0 | 5.0 | 0.00 | 0.00 | 0.00 | 47 | 1013.8 |
| 20260902030442 | 92 | 127 | 3.0 | 5.0 | 0.00 | 0.00 | 0.00 | 47 | 1013.7 |
| 20260902025935 | 92 | 125 | 3.0 | 6.0 | 0.00 | 0.00 | 0.00 | 47 | 1013.7 |
| 20260902025509 | 92 | 124 | 4.0 | 7.0 | 0.00 | 0.00 | 0.00 | 47 | 1013.5 |
| 20260902024932 | 92 | 124 | 5.0 | 7.0 | 0.00 | 0.00 | 0.00 | 47 | 1013.5 |
| 20260902024435 | 92 | 120 | 3.0 | 5.0 | 0.00 | 0.00 | 0.00 | 47 | 1013.5 |
| 20260902024006 | 92 | 118 | 3.0 | 7.0 | 0.00 | 0.00 | 0.00 | 47 | 1013.4 |
| 20260902023428 | 92 | 119 | 3.0 | 7.0 | 0.00 | 0.00 | 0.00 | 46 | 1013.4 |
| 20260902022953 | 92 | 118 | 4.0 | 6.0 | 0.00 | 0.00 | 0.00 | 46 | 1013.3 |
| 20260902022438 | 92 | 126 | 4.0 | 6.0 | 0.00 | 0.00 | 0.00 | 46 | 1013.2 |
| 20260902021946 | 92 | 119 | 3.0 | 6.0 | 0.00 | 0.00 | 0.00 | 46 | 1013.1 |
| 20260902021435 | 92 | 120 | 4.0 | 6.0 | 0.00 | 0.00 | 0.00 | 46 | 1013.1 |
| 20260902020941 | 92 | 118 | 3.0 | 5.0 | 0.00 | 0.00 | 0.00 | 46 | 1013.0 |
| 20260902020443 | 93 | 118 | 3.0 | 6.0 | 0.00 | 0.00 | 0.00 | 45 | 1012.9 |
| 20260902015930 | 93 | 120 | 3.0 | 9.0 | 0.00 | 0.00 | 0.00 | 44 | 1013.0 |
| 20260902015505 | 93 | 117 | 5.0 | 9.0 | 0.00 | 0.00 | 0.00 | 44 | 1012.9 |
| 20260902014940 | 93 | 108 | 4.0 | 7.0 | 0.00 | 0.00 | 0.00 | 44 | 1012.8 |
| 20260902014426 | 93 | 112 | 4.0 | 5.0 | 0.00 | 0.00 | 0.00 | 44 | 1012.8 |
| 20260902013933 | 93 | 116 | 3.0 | 6.0 | 0.00 | 0.00 | 0.00 | 44 | 1012.7 |
| 20260902013443 | 94 | 119 | 4.0 | 7.0 | 0.00 | 0.00 | 0.00 | 43 | 1012.6 |
| 20260902012949 | 94 | 122 | 4.0 | 7.0 | 0.00 | 0.00 | 0.00 | 43 | 1012.6 |
| 20260902012456 | 94 | 120 | 3.0 | 6.0 | 0.00 | 0.00 | 0.00 | 43 | 1012.5 |
| 20260902011935 | 94 | 118 | 4.0 | 8.0 | 0.00 | 0.00 | 0.00 | 43 | 1012.6 |
| 20260902011447 | 94 | 110 | 4.0 | 8.0 | 0.00 | 0.00 | 0.00 | 43 | 1012.5 |
| 20260902010929 | 94 | 98 | 4.0 | 7.0 | 0.00 | 0.00 | 0.00 | 43 | 1012.4 |
| 20260902010437 | 94 | 114 | 3.0 | 6.0 | 0.00 | 0.00 | 0.00 | 42 | 1012.4 |
| 20260902010009 | 95 | 110 | 3.0 | 7.0 | 0.00 | 0.00 | 0.00 | 42 | 1012.4 |
| 20260902005454 | 95 | 114 | 4.0 | 7.0 | 0.00 | 0.00 | 0.00 | 42 | 1012.4 |
| 20260902004933 | 95 | 111 | 3.0 | 9.0 | 0.00 | 0.00 | 0.00 | 42 | 1012.4 |
| 20260902004440 | 95 | 106 | 4.0 | 9.0 | 0.00 | 0.00 | 0.00 | 41 | 1012.4 |
| 20260902003951 | 96 | 106 | 4.0 | 10.0 | 0.00 | 0.00 | 0.00 | 40 | 1012.5 |
| 20260902003436 | 96 | 114 | 4.0 | 11.0 | 0.00 | 0.00 | 0.00 | 40 | 1012.5 |
| 20260902002940 | 96 | 131 | 6.0 | 11.0 | 0.00 | 0.00 | 0.00 | 40 | 1012.5 |
| 20260902002431 | 96 | 106 | 4.0 | 12.0 | 0.00 | 0.00 | 0.00 | 39 | 1012.6 |
| 20260902001954 | 96 | 120 | 8.0 | 12.0 | 0.00 | 0.00 | 0.00 | 39 | 1012.5 |
| 20260902001437 | 97 | 97 | 9.0 | 12.0 | 0.00 | 0.00 | 0.00 | 39 | 1012.6 |
| 20260902000941 | 97 | 118 | 5.0 | 12.0 | 0.00 | 0.00 | 0.00 | 39 | 1012.7 |
| 20260902000425 | 97 | 86 | 9.0 | 12.0 | 0.00 | 0.00 | 0.00 | 39 | 1012.7 |
| 20260901235934 | 97 | 113 | 7.0 | 15.0 | 0.00 | 0.00 | 0.00 | 38 | 1012.7 |
| 20260901235505 | 98 | 89 | 9.0 | 15.0 | 0.00 | 0.00 | 0.00 | 38 | 1012.7 |
| 20260901234935 | 98 | 97 | 10.0 | 15.0 | 0.00 | 0.00 | 0.00 | 38 | 1012.7 |
| 20260901234455 | 98 | 102 | 6.0 | 7.0 | 0.00 | 0.00 | 0.00 | 38 | 1012.6 |
| 20260901233941 | 99 | 109 | 5.0 | 11.0 | 0.00 | 0.00 | 0.00 | 36 | 1012.7 |
| 20260901233429 | 99 | 124 | 6.0 | 11.0 | 0.00 | 0.00 | 0.00 | 36 | 1012.7 |
| 20260901232959 | 99 | 102 | 5.0 | 10.0 | 0.00 | 0.00 | 0.00 | 36 | 1012.7 |
| 20260901232427 | 99 | 122 | 2.0 | 10.0 | 0.00 | 0.00 | 0.00 | 36 | 1012.8 |
| 20260901231959 | 99 | 95 | 6.0 | 13.0 | 0.00 | 0.00 | 0.00 | 36 | 1012.8 |
| 20260901231444 | 99 | 101 | 7.0 | 13.0 | 0.00 | 0.00 | 0.00 | 37 | 1012.8 |
| 20260901230927 | 99 | 104 | 8.0 | 11.0 | 0.00 | 0.00 | 0.00 | 36 | 1012.7 |
| 20260901230437 | 99 | 158 | 5.0 | 10.0 | 0.00 | 0.00 | 0.00 | 36 | 1012.8 |
| 20260901225945 | 99 | 111 | 5.0 | 12.0 | 0.00 | 0.00 | 0.00 | 36 | 1012.7 |
| 20260901225450 | 100 | 102 | 7.0 | 12.0 | 0.00 | 0.00 | 0.00 | 35 | 1012.8 |
| 20260901224955 | 100 | 84 | 8.0 | 12.0 | 0.00 | 0.00 | 0.00 | 35 | 1012.8 |
| 20260901224442 | 100 | 120 | 3.0 | 7.0 | 0.00 | 0.00 | 0.00 | 34 | 1012.8 |
| 20260901223929 | 100 | 129 | 3.0 | 13.0 | 0.00 | 0.00 | 0.00 | 34 | 1012.8 |
| 20260901223447 | 100 | 95 | 5.0 | 13.0 | 0.00 | 0.00 | 0.00 | 35 | 1012.8 |
| 20260901222935 | 100 | 68 | 8.0 | 11.0 | 0.00 | 0.00 | 0.00 | 34 | 1012.8 |
| 20260901222439 | 100 | 107 | 3.0 | 15.0 | 0.00 | 0.00 | 0.00 | 35 | 1012.9 |
| 20260901221926 | 100 | 122 | 6.0 | 15.0 | 0.00 | 0.00 | 0.00 | 35 | 1012.9 |
| 20260901221437 | 100 | 108 | 2.0 | 15.0 | 0.00 | 0.00 | 0.00 | 34 | 1012.9 |
| 20260901220946 | 99 | 128 | 3.0 | 15.0 | 0.00 | 0.00 | 0.00 | 36 | 1013.0 |
| 20260901220432 | 100 | 105 | 8.0 | 13.0 | 0.00 | 0.00 | 0.00 | 36 | 1012.9 |
| 20260901215932 | 100 | 118 | 7.0 | 11.0 | 0.00 | 0.00 | 0.00 | 34 | 1013.0 |
| 20260901215505 | 101 | 109 | 5.0 | 11.0 | 0.00 | 0.00 | 0.00 | 35 | 1013.0 |
| 20260901214951 | 101 | 112 | 5.0 | 11.0 | 0.00 | 0.00 | 0.00 | 35 | 1013.1 |
| 20260901214432 | 100 | 122 | 4.0 | 11.0 | 0.00 | 0.00 | 0.00 | 35 | 1013.1 |
| 20260901213941 | 100 | 148 | 4.0 | 11.0 | 0.00 | 0.00 | 0.00 | 35 | 1013.2 |
| 20260901213446 | 99 | 114 | 7.0 | 14.0 | 0.00 | 0.00 | 0.00 | 34 | 1013.2 |
| 20260901212930 | 100 | 110 | 11.0 | 14.0 | 0.00 | 0.00 | 0.00 | 34 | 1013.2 |
| 20260901212452 | 100 | 117 | 4.0 | 12.0 | 0.00 | 0.00 | 0.00 | 35 | 1013.3 |
| 20260901211935 | 99 | 112 | 6.0 | 12.0 | 0.00 | 0.00 | 0.00 | 35 | 1013.3 |
| 20260901211439 | 99 | 119 | 8.0 | 11.0 | 0.00 | 0.00 | 0.00 | 36 | 1013.4 |
| 20260901210945 | 99 | 123 | 1.0 | 6.0 | 0.00 | 0.00 | 0.00 | 37 | 1013.4 |
| 20260901210428 | 98 | 123 | 1.0 | 10.0 | 0.00 | 0.00 | 0.00 | 37 | 1013.5 |
| 20260901205932 | 97 | 129 | 5.0 | 11.0 | 0.00 | 0.00 | 0.00 | 38 | 1013.6 |
| 20260901205451 | 97 | 104 | 7.0 | 14.0 | 0.00 | 0.00 | 0.00 | 38 | 1013.6 |
| 20260901204956 | 98 | 98 | 7.0 | 14.0 | 0.00 | 0.00 | 0.00 | 36 | 1013.6 |
| 20260901204448 | 99 | 97 | 7.0 | 13.0 | 0.00 | 0.00 | 0.00 | 37 | 1013.6 |
| 20260901203954 | 100 | 91 | 7.0 | 13.0 | 0.00 | 0.00 | 0.00 | 36 | 1013.7 |
| 20260901203446 | 100 | 171 | 3.0 | 7.0 | 0.00 | 0.00 | 0.00 | 36 | 1013.8 |
| 20260901202932 | 100 | 233 | 4.0 | 7.0 | 0.00 | 0.00 | 0.00 | 36 | 1013.8 |
| 20260901202434 | 100 | 137 | 5.0 | 11.0 | 0.00 | 0.00 | 0.00 | 37 | 1013.8 |
| 20260901202005 | 100 | 148 | 6.0 | 11.0 | 0.00 | 0.00 | 0.00 | 36 | 1014.0 |
| 20260901201430 | 99 | 144 | 1.0 | 11.0 | 0.00 | 0.00 | 0.00 | 36 | 1013.9 |
| 20260901200935 | 100 | 125 | 3.0 | 11.0 | 0.00 | 0.00 | 0.00 | 36 | 1014.1 |
| 20260901200442 | 100 | 158 | 2.0 | 7.0 | 0.00 | 0.00 | 0.00 | 37 | 1014.1 |
| 20260901195930 | 99 | 153 | 5.0 | 10.0 | 0.00 | 0.00 | 0.00 | 39 | 1014.2 |
| 20260901195436 | 99 | 126 | 5.0 | 10.0 | 0.00 | 0.00 | 0.00 | 39 | 1014.3 |
| 20260901194945 | 99 | 114 | 5.0 | 10.0 | 0.00 | 0.00 | 0.00 | 39 | 1014.2 |
| 20260901194430 | 99 | 89 | 6.0 | 10.0 | 0.00 | 0.00 | 0.00 | 39 | 1014.3 |
| 20260901193940 | 99 | 102 | 1.0 | 10.0 | 0.00 | 0.00 | 0.00 | 38 | 1014.4 |
| 20260901193427 | 99 | 107 | 6.0 | 15.0 | 0.00 | 0.00 | 0.00 | 39 | 1014.4 |
| 20260901192937 | 98 | 116 | 6.0 | 15.0 | 0.00 | 0.00 | 0.00 | 39 | 1014.5 |
| 20260901192443 | 98 | 95 | 11.0 | 15.0 | 0.00 | 0.00 | 0.00 | 39 | 1014.5 |
| 20260901191931 | 99 | 90 | 7.0 | 12.0 | 0.00 | 0.00 | 0.00 | 38 | 1014.6 |
| 20260901191434 | 98 | 111 | 6.0 | 16.0 | 0.00 | 0.00 | 0.00 | 40 | 1014.7 |
| 20260901190940 | 97 | 114 | 7.0 | 16.0 | 0.00 | 0.00 | 0.00 | 42 | 1014.8 |
| 20260901190440 | 97 | 97 | 9.0 | 13.0 | 0.00 | 0.00 | 0.00 | 40 | 1014.8 |
| 20260901185947 | 98 | 210 | 4.0 | 9.0 | 0.00 | 0.00 | 0.00 | 41 | 1014.8 |
| 20260901185432 | 98 | 195 | 4.0 | 9.0 | 0.00 | 0.00 | 0.00 | 40 | 1015.1 |
| 20260901184934 | 97 | 137 | 2.0 | 12.0 | 0.00 | 0.00 | 0.00 | 42 | 1015.1 |
| 20260901184437 | 97 | 120 | 3.0 | 14.0 | 0.00 | 0.00 | 0.00 | 42 | 1015.2 |
| 20260901183929 | 97 | 105 | 5.0 | 14.0 | 0.00 | 0.00 | 0.00 | 41 | 1015.4 |
| 20260901183432 | 98 | 111 | 8.0 | 12.0 | 0.00 | 0.00 | 0.00 | 41 | 1015.4 |
| 20260901182937 | 97 | 58 | 3.0 | 12.0 | 0.00 | 0.00 | 0.00 | 41 | 1015.5 |
| 20260901182427 | 97 | 108 | 8.0 | 12.0 | 0.00 | 0.00 | 0.00 | 42 | 1015.6 |
| 20260901181940 | 96 | 108 | 4.0 | 13.0 | 0.00 | 0.00 | 0.00 | 42 | 1015.7 |
| 20260901181432 | 98 | 117 | 8.0 | 13.0 | 0.00 | 0.00 | 0.00 | 41 | 1015.7 |
| 20260901180936 | 98 | 110 | 5.0 | 14.0 | 0.00 | 0.00 | 0.00 | 42 | 1015.8 |
| 20260901180429 | 97 | 106 | 5.0 | 14.0 | 0.00 | 0.00 | 0.00 | 41 | 1015.8 |
| 20260901175958 | 97 | 112 | 4.0 | 9.0 | 0.00 | 0.00 | 0.00 | 42 | 1015.9 |
| 20260901175457 | 97 | 95 | 5.0 | 10.0 | 0.00 | 0.00 | 0.00 | 41 | 1016.0 |
| 20260901174946 | 97 | 135 | 5.0 | 11.0 | 0.00 | 0.00 | 0.00 | 41 | 1016.1 |
| 20260901174432 | 97 | 62 | 4.0 | 11.0 | 0.00 | 0.00 | 0.00 | 42 | 1016.0 |
| 20260901173938 | 96 | 96 | 4.0 | 10.0 | 0.00 | 0.00 | 0.00 | 43 | 1016.1 |
| 20260901173428 | 96 | 103 | 4.0 | 9.0 | 0.00 | 0.00 | 0.00 | 44 | 1016.3 |
| 20260901172932 | 96 | 126 | 2.0 | 6.0 | 0.00 | 0.00 | 0.00 | 44 | 1016.2 |
| 20260901172457 | 96 | 127 | 4.0 | 9.0 | 0.00 | 0.00 | 0.00 | 43 | 1016.4 |
| 20260901171937 | 96 | 134 | 4.0 | 9.0 | 0.00 | 0.00 | 0.00 | 43 | 1016.5 |
| 20260901171439 | 96 | 115 | 4.0 | 10.0 | 0.00 | 0.00 | 0.00 | 44 | 1016.5 |
| 20260901170925 | 96 | 113 | 4.0 | 10.0 | 0.00 | 0.00 | 0.00 | 44 | 1016.6 |
| 20260901170435 | 96 | 89 | 2.0 | 11.0 | 0.00 | 0.00 | 0.00 | 44 | 1016.7 |
| 20260901165926 | 95 | 116 | 6.0 | 9.0 | 0.00 | 0.00 | 0.00 | 45 | 1016.7 |
| 20260901165435 | 95 | 131 | 2.0 | 7.0 | 0.00 | 0.00 | 0.00 | 45 | 1016.8 |
| 20260901164939 | 95 | 148 | 2.0 | 8.0 | 0.00 | 0.00 | 0.00 | 46 | 1016.8 |
| 20260901164426 | 95 | 197 | 3.0 | 8.0 | 0.00 | 0.00 | 0.00 | 45 | 1016.9 |
| 20260901163927 | 95 | 131 | 3.0 | 6.0 | 0.00 | 0.00 | 0.00 | 46 | 1016.9 |
| 20260901163437 | 94 | 179 | 4.0 | 8.0 | 0.00 | 0.00 | 0.00 | 46 | 1016.9 |
| 20260901162937 | 94 | 148 | 5.0 | 8.0 | 0.00 | 0.00 | 0.00 | 46 | 1016.9 |
| 20260901162440 | 95 | 196 | 2.0 | 10.0 | 0.00 | 0.00 | 0.00 | 46 | 1016.9 |
| 20260901161942 | 94 | 199 | 5.0 | 10.0 | 0.00 | 0.00 | 0.00 | 47 | 1016.9 |
| 20260901161448 | 93 | 207 | 3.0 | 9.0 | 0.00 | 0.00 | 0.00 | 48 | 1016.9 |
| 20260901160932 | 93 | 216 | 4.0 | 9.0 | 0.00 | 0.00 | 0.00 | 48 | 1017.0 |
| 20260901160431 | 94 | 231 | 2.0 | 5.0 | 0.00 | 0.00 | 0.00 | 48 | 1017.0 |
| 20260901155933 | 92 | 109 | 2.0 | 6.0 | 0.00 | 0.00 | 0.00 | 51 | 1016.9 |
| 20260901155508 | 92 | 106 | 3.0 | 7.0 | 0.00 | 0.00 | 0.00 | 50 | 1016.9 |
| 20260901154951 | 92 | 264 | 2.0 | 10.0 | 0.00 | 0.00 | 0.00 | 51 | 1016.9 |
| 20260901154432 | 91 | 197 | 6.0 | 10.0 | 0.00 | 0.00 | 0.00 | 51 | 1017.0 |
| 20260901153940 | 91 | 210 | 3.0 | 7.0 | 0.00 | 0.00 | 0.00 | 53 | 1016.9 |
| 20260901153442 | 91 | 210 | 2.0 | 8.0 | 0.00 | 0.00 | 0.00 | 53 | 1016.8 |
| 20260901152929 | 91 | 247 | 1.0 | 8.0 | 0.00 | 0.00 | 0.00 | 53 | 1016.8 |
| 20260901152436 | 91 | 223 | 3.0 | 10.0 | 0.00 | 0.00 | 0.00 | 52 | 1016.8 |
| 20260901151938 | 90 | 233 | 3.0 | 10.0 | 0.00 | 0.00 | 0.00 | 54 | 1016.8 |
| 20260901151428 | 89 | 187 | 1.0 | 7.0 | 0.00 | 0.00 | 0.00 | 55 | 1016.8 |
| 20260901150935 | 89 | 228 | 4.0 | 7.0 | 0.00 | 0.00 | 0.00 | 55 | 1016.9 |
| 20260901150505 | 89 | 170 | 2.0 | 5.0 | 0.00 | 0.00 | 0.00 | 57 | 1017.0 |
| 20260901145946 | 88 | 158 | 2.0 | 5.0 | 0.00 | 0.00 | 0.00 | 58 | 1016.9 |
| 20260901145435 | 88 | 153 | 3.0 | 7.0 | 0.00 | 0.00 | 0.00 | 58 | 1016.9 |
| 20260901145006 | 87 | 194 | 4.0 | 7.0 | 0.00 | 0.00 | 0.00 | 58 | 1017.0 |
| 20260901144430 | 87 | 153 | 3.0 | 6.0 | 0.00 | 0.00 | 0.00 | 59 | 1017.0 |
| 20260901143933 | 87 | 198 | 2.0 | 5.0 | 0.00 | 0.00 | 0.00 | 59 | 1017.0 |
| 20260901143441 | 87 | 200 | 2.0 | 5.0 | 0.00 | 0.00 | 0.00 | 60 | 1017.0 |
| 20260901143000 | 86 | 153 | 3.0 | 6.0 | 0.00 | 0.00 | 0.00 | 60 | 1017.0 |
| 20260901142446 | 86 | 197 | 3.0 | 6.0 | 0.00 | 0.00 | 0.00 | 60 | 1017.0 |
| 20260901141931 | 86 | 172 | 2.0 | 6.0 | 0.00 | 0.00 | 0.00 | 61 | 1017.0 |
| 20260901141438 | 86 | 131 | 3.0 | 6.0 | 0.00 | 0.00 | 0.00 | 61 | 1017.1 |
| 20260901140942 | 85 | 118 | 3.0 | 7.0 | 0.00 | 0.00 | 0.00 | 62 | 1017.1 |
| 20260901140429 | 85 | 176 | 4.0 | 7.0 | 0.00 | 0.00 | 0.00 | 62 | 1017.1 |
| 20260901135956 | 85 | 125 | 4.0 | 9.0 | 0.00 | 0.00 | 0.00 | 63 | 1017.2 |
| 20260901135439 | 84 | 117 | 4.0 | 9.0 | 0.00 | 0.00 | 0.00 | 63 | 1017.1 |
| 20260901134943 | 84 | 120 | 5.0 | 6.0 | 0.00 | 0.00 | 0.00 | 63 | 1017.0 |
| 20260901134427 | 83 | 118 | 3.0 | 7.0 | 0.00 | 0.00 | 0.00 | 64 | 1017.0 |